Tracking 19854 objects as of 23-Sep-2019
HD Live streaming from Space Station
objects crossing your sky now

FENGYUN 1C DEB

Track FENGYUN 1C DEB now!
10-day predictions


NORAD ID: 35240
Int'l Code: 1999-025DQY
Perigee: 829.6 km
Apogee: 913.7 km
Inclination: 99.4 °
Period: 102.2 minutes
Semi major axis: 7242 km
RCS: 0.0037 m2 (small)
Launch date: May 10, 1999
Source: People's Republic of China (PRC)
Launch site: Taiyaun Space Center, China (TSC)

Note: This is SATELLITE DEBRIS
aabbcc
Your satellite tracking list
Your tracking list is empty




NASA's NSSDC Master Catalog

Two Line Element Set (TLE):
1 35240U 99025DQY 19265.48545603  .00000464  00000-0  29404-3 0  9993
2 35240  99.4101  96.0654 0058064  19.0086 341.3231 14.08493471610664
Source of the keplerian elements: AFSPC